Wind_Speed
27 22 15 13 13 12 11 8 5 6 7 3 5 13 18 17 17 18 25 23 11 8 8 4 6 3 2 6 2 2 3 8 9 9 9 9 10 11 13 14 12 8 10 6
31 20 18 20 15 15 15 7 6 4 4 2 7 10 16 18 21 24 30 33 13 13 8 7 13 7 2 8 15 23 24 20 15 13 9 9 8 14 19 18 18 11 8 12
28 17 28 26 23 19 16 9 6 8 8 5 3 9 14 19 22 26 29 33 4 9 7 7 13 15 19 20 21 21 21 22 21 20 20 2 11 15 10 7 9 5 8 8
29 26 31 31 27 22 15 14 8 9 18 12 13 9 12 16 19 24 26 24 1 3 2 1 9 13 15 18 20 21 19 19 18 18 19 18 20 15 16 14 5 5 7 10
29 25 31 36 25 25 16 20 11 12 16 18 10 10 7 10 10 18 21 19 9 4 1 5 2 9 11 13 14 14 14 16 15 15 16 16 17 14 17 15 14 10 8 4
37 34 38 41 34 34 24 19 13 13 15 22 12 14 9 11 10 14 20 19 11 2 4 6 7 2 7 9 9 10 11 9 10 11 13 14 14 13 14 13 10 8 4 5
40 36 33 33 38 36 31 25 20 19 19 24 22 19 15 12 10 13 17 17 10 5 10 12 7 5 1 5 8 10 10 8 6 7 11 11 12 12 12 10 9 8 6 6
38 38 37 33 33 37 37 33 27 27 29 27 30 32 27 12 6 9 8 8 12 9 5 13 12 7 5 1 3 8 10 11 8 5 7 8 9 7 5 6 8 8 9 8
36 37 32 37 34 34 41 38 31 28 27 29 30 27 25 11 4 4 7 11 12 1 1 7 10 8 5 3 1 3 7 7 8 9 9 11 9 8 7 8 8 10 11 11
35 39 32 31 36 37 36 41 36 33 31 31 35 23 20 15 4 8 11 9 3 12 5 6 9 10 7 5 3 4 6 8 9 11 10 9 9 11 12 12 12 11 12 13
32 41 33 37 39 35 36 38 41 36 29 20 17 25 24 17 12 13 14 14 12 15 3 4 9 10 8 7 5 6 8 10 11 13 13 14 15 15 16 16 16 14 14 16
33 38 38 36 37 35 36 38 42 40 36 27 25 19 24 22 19 17 16 17 14 15 10 8 9 11 9 8 7 7 7 9 9 13 15 16 16 14 15 18 19 17 17 17
33 31 31 34 38 39 39 43 40 41 38 36 23 12 9 24 23 20 17 18 20 16 10 7 7 11 13 11 8 8 8 8 11 14 16 17 17 18 19 20 19 18 19 20
32 31 30 29 29 39 41 47 41 32 35 33 26 13 12 18 27 25 24 24 22 10 9 6 7 6 9 11 10 10 11 12 13 15 15 16 17 18 19 18 18 19 20 22
35 37 36 33 35 42 47 46 40 34 29 32 29 26 16 16 24 28 27 29 23 13 12 18 21 15 14 13 14 13 15 16 18 17 17 19 20 19 18 18 19 21 22 24
36 40 40 35 31 38 51 48 44 38 29 34 37 34 18 14 22 29 27 25 22 20 18 17 15 18 21 21 19 16 16 18 19 18 19 22 23 20 20 21 22 24 26 25
35 40 43 42 35 34 42 51 46 44 39 32 34 34 23 26 24 23 29 29 26 22 21 25 17 18 20 23 20 21 19 21 20 19 19 21 23 22 22 23 25 27 28 27
36 35 42 46 42 37 34 39 42 44 46 38 34 30 24 28 28 27 28 29 26 23 20 17 13 15 23 23 26 26 21 19 21 21 24 24 22 24 26 25 26 28 29 29
52 42 41 44 46 40 43 44 43 44 42 48 41 34 29 30 32 28 24 24 25 24 25 23 18 25 27 30 31 28 19 17 22 23 23 21 21 24 24 24 26 28 30 31
54 55 42 35 44 43 39 40 45 42 42 47 50 43 35 33 37 32 29 26 28 30 30 26 24 29 31 36 41 38 22 18 19 24 23 22 24 24 25 25 28 31 33 33
33 44 52 42 32 40 36 37 38 39 39 46 52 51 43 42 42 40 40 38 38 37 38 31 27 32 32 35 41 38 22 20 19 24 24 24 26 26 27 30 33 32 32 34
35 39 47 50 51 46 42 37 35 35 36 39 47 54 53 51 51 48 49 44 40 30 27 28 32 35 31 40 42 33 21 17 22 24 25 28 28 28 31 33 36 36 35 37
34 41 44 49 51 52 53 46 40 39 39 36 36 45 50 50 50 54 51 48 36 28 26 29 36 34 39 38 41 40 26 21 21 23 28 30 32 35 31 33 35 33 32 31
29 39 43 43 45 48 49 45 50 36 36 35 40 41 41 41 42 42 41 35 33 33 33 34 36 40 34 35 41 30 29 22 24 23 29 32 34 36 38 37 37 37 34 30
29 33 36 43 46 45 43 46 44 39 30 34 34 37 40 37 44 42 42 39 33 35 35 31 37 30 31 29 22 25 29 30 23 26 33 34 35 32 34 36 38 36 31 31
28 31 38 38 45 46 40 39 38 37 43 37 36 37 42 41 37 39 42 45 35 36 30 37 39 29 32 29 30 32 32 25 26 33 37 40 37 35 34 38 38 31 31 31
Wind_Direction
232 229 243 203 208 177 178 177 66 83 69 153 334 345 16 29 12 8 6 5 354 342 323 338 62 255 353 2 147 98 322 311 313 294 287 280 264 245 263 261 258 273 299 346
223 229 230 224 220 189 191 220 82 67 296 287 337 348 13 359 355 0 359 352 315 350 344 76 83 94 64 47 60 68 65 62 55 18 315 281 277 258 257 249 260 262 305 309
230 216 219 214 215 219 225 213 176 281 296 266 305 17 16 18 9 8 360 352 277 6 331 110 96 90 88 85 78 71 57 51 52 42 41 103 301 315 314 314 288 286 343 312
223 207 211 209 210 220 210 189 276 314 306 268 302 355 31 19 358 9 12 3 265 71 287 70 111 96 85 76 68 63 63 53 45 52 47 40 38 24 49 49 62 14 56 80
225 214 217 217 210 217 196 211 231 291 311 265 271 313 3 343 350 13 18 1 16 19 28 262 143 105 82 75 68 65 54 45 40 44 45 40 39 44 42 47 45 74 56 55
223 214 216 216 211 216 208 207 228 252 285 279 260 289 311 316 8 13 15 352 334 285 260 252 256 186 105 80 66 66 60 41 21 20 24 30 32 24 33 29 33 36 24 2
231 223 222 223 219 214 222 217 220 240 261 283 296 289 273 291 344 2 359 3 336 238 230 229 233 264 214 76 66 53 55 49 17 1 357 6 16 14 14 17 5 11 5 346
237 228 225 222 223 220 225 218 228 244 243 245 259 262 271 275 317 334 353 11 347 231 259 216 235 245 251 193 115 42 29 36 15 2 337 342 359 3 360 351 354 343 338 323
237 235 230 229 222 219 218 221 225 243 251 257 261 256 259 254 299 306 322 4 344 105 336 227 244 247 237 239 204 343 349 24 5 356 337 327 333 327 329 338 340 340 327 310
234 237 222 224 226 223 225 224 226 236 252 257 260 258 238 236 247 300 307 345 41 11 44 197 227 229 228 258 285 310 331 347 337 324 318 314 312 311 319 322 316 326 326 313
235 233 211 221 224 220 225 221 227 234 239 246 280 256 223 238 229 280 291 305 314 335 311 206 218 237 240 252 267 296 325 326 329 327 320 308 300 302 306 306 303 300 315 319
231 234 230 222 219 221 220 223 225 233 236 237 246 285 219 234 242 256 272 283 290 312 310 265 243 252 257 263 288 305 312 321 319 313 315 315 307 304 300 298 298 299 305 315
229 236 240 231 222 216 215 215 221 229 237 239 245 270 278 234 241 252 262 265 276 297 290 279 264 256 266 275 291 300 302 311 310 304 310 313 310 303 302 303 303 306 308 315
237 232 236 229 220 216 216 215 221 230 243 243 236 266 271 283 238 251 258 257 258 274 277 250 299 296 286 282 280 282 281 288 291 306 310 314 309 301 295 294 297 301 303 304
241 244 233 233 216 212 212 217 220 230 244 237 235 239 243 270 239 240 244 247 261 276 255 264 275 314 300 285 267 263 267 278 282 288 303 302 301 301 303 304 301 302 302 302
235 242 238 236 228 218 214 219 222 230 237 239 242 242 224 207 230 235 242 247 264 269 279 281 270 297 304 291 260 258 272 278 282 293 298 295 296 296 298 301 305 304 302 302
231 236 239 237 232 230 224 221 223 230 232 232 237 242 243 229 235 242 244 250 260 274 286 293 291 281 280 265 260 254 261 271 283 300 301 298 292 290 300 305 307 309 308 303
232 239 237 237 238 235 237 236 235 241 239 234 233 231 244 245 247 245 248 253 257 266 264 282 289 267 260 261 260 254 248 269 286 298 301 298 293 293 297 302 303 307 307 305
232 227 238 238 240 245 241 245 243 244 244 236 233 235 241 248 256 255 255 265 275 263 253 256 247 270 268 271 255 246 236 259 285 296 301 297 290 290 294 299 303 306 305 306
235 237 229 228 236 243 243 246 248 249 246 240 239 236 231 244 255 262 260 258 265 273 273 260 263 274 264 277 301 264 239 241 271 293 296 292 291 291 294 297 299 302 302 303
235 235 240 231 231 238 246 244 241 239 240 243 243 242 236 238 248 254 262 268 273 268 266 274 271 275 297 293 294 277 274 263 265 283 284 285 290 291 295 302 303 305 304 303
221 235 237 240 244 243 242 240 240 235 237 241 243 243 242 240 244 251 258 260 261 258 264 266 270 277 275 282 289 298 265 247 260 282 286 288 286 285 290 300 306 307 304 304
234 227 233 237 240 242 245 243 244 236 235 231 232 240 246 247 244 248 252 258 259 261 265 263 266 264 269 277 285 283 268 236 255 277 281 285 285 282 292 297 307 312 312 307
249 237 230 232 235 241 243 241 246 227 228 233 231 233 237 239 237 239 242 246 250 254 260 263 264 263 278 268 277 276 247 244 253 273 282 291 300 287 282 292 297 306 303 302
250 241 235 234 234 237 242 246 251 253 241 240 239 240 242 246 240 242 245 249 252 253 236 242 256 264 274 270 263 252 239 247 266 273 278 285 289 293 290 289 298 302 299 300
259 251 245 241 236 237 239 246 249 252 253 248 251 251 249 251 261 253 254 252 238 234 258 253 257 254 261 261 247 232 233 246 272 276 280 285 286 289 290 293 303 294 295 298
Height
5906 5909 5911 5915 5915 5917 5919 5917 5918 5918 5917 5918 5915 5915 5913 5912 5910 5908 5907 5904 5906 5903 5900 5896 5893 5887 5886 5886 5888 5890 5889 5889 5889 5888 5887 5887 5887 5887 5886 5885 5885 5884 5885 5884
5904 5908 5911 5910 5912 5915 5917 5918 5916 5914 5916 5917 5916 5914 5913 5912 5910 5908 5906 5903 5902 5901 5899 5894 5891 5889 5887 5887 5890 5886 5886 5885 5883 5884 5882 5882 5883 5882 5882 5881 5881 5881 5882 5881
5901 5910 5907 5908 5910 5913 5915 5916 5914 5912 5912 5913 5915 5913 5911 5911 5910 5908 5905 5901 5899 5902 5901 5897 5893 5892 5890 5890 5889 5887 5886 5884 5884 5886 5881 5882 5882 5879 5878 5877 5878 5880 5880 5879
5899 5901 5903 5905 5908 5911 5914 5914 5910 5908 5907 5907 5911 5911 5910 5909 5908 5907 5906 5903 5900 5901 5902 5901 5895 5893 5892 5890 5890 5889 5890 5888 5889 5887 5885 5884 5882 5880 5878 5878 5878 5880 5880 5880
5897 5900 5899 5900 5907 5906 5911 5906 5906 5905 5905 5905 5907 5907 5909 5909 5908 5907 5907 5905 5901 5901 5901 5901 5900 5894 5892 5889 5888 5891 5892 5890 5891 5890 5888 5887 5885 5885 5883 5881 5880 5880 5882 5883
5885 5890 5890 5895 5900 5900 5906 5904 5905 5904 5902 5901 5903 5902 5905 5907 5906 5905 5903 5901 5900 5900 5901 5902 5900 5897 5894 5894 5893 5892 5890 5892 5892 5891 5890 5889 5886 5884 5883 5882 5882 5882 5882 5882
5878 5884 5889 5893 5895 5898 5901 5902 5901 5902 5901 5897 5898 5899 5902 5903 5904 5902 5902 5901 5899 5897 5897 5898 5898 5897 5896 5895 5894 5893 5891 5891 5893 5891 5890 5889 5886 5885 5883 5884 5884 5881 5880 5879
5870 5877 5881 5887 5890 5895 5895 5896 5896 5896 5897 5899 5897 5897 5898 5901 5902 5900 5901 5901 5898 5895 5895 5895 5896 5896 5896 5894 5894 5891 5891 5889 5892 5891 5891 5890 5887 5885 5886 5885 5882 5880 5878 5877
5863 5866 5876 5878 5881 5886 5888 5889 5891 5891 5892 5893 5893 5894 5895 5897 5897 5897 5897 5896 5894 5893 5892 5892 5893 5893 5895 5894 5892 5891 5891 5887 5889 5890 5889 5888 5887 5885 5883 5881 5879 5877 5876 5874
5852 5856 5866 5871 5872 5877 5879 5884 5887 5886 5886 5886 5887 5888 5891 5893 5892 5893 5893 5893 5893 5891 5889 5890 5891 5892 5891 5890 5889 5889 5888 5885 5885 5887 5886 5885 5885 5883 5882 5879 5876 5874 5873 5870
5847 5848 5858 5860 5862 5869 5872 5876 5878 5880 5881 5880 5881 5882 5887 5889 5890 5890 5890 5890 5890 5889 5888 5888 5888 5888 5888 5887 5887 5886 5883 5882 5882 5882 5883 5882 5880 5879 5878 5876 5874 5871 5869 5866
5841 5844 5847 5851 5855 5861 5864 5867 5871 5872 5875 5875 5874 5878 5881 5884 5886 5887 5886 5886 5888 5886 5885 5885 5884 5886 5886 5885 5884 5883 5882 5881 5880 5881 5880 5879 5876 5874 5873 5872 5870 5868 5866 5862
5837 5839 5842 5848 5849 5851 5854 5860 5862 5864 5867 5868 5870 5873 5876 5879 5881 5883 5884 5884 5882 5883 5882 5882 5882 5883 5882 5882 5881 5880 5879 5877 5877 5877 5876 5875 5873 5871 5869 5868 5866 5864 5861 5857
5833 5835 5835 5840 5845 5847 5850 5854 5857 5860 5861 5863 5863 5868 5871 5873 5875 5877 5879 5880 5880 5880 5880 5880 5881 5880 5879 5879 5878 5875 5875 5874 5874 5875 5872 5871 5869 5867 5865 5862 5860 5858 5856 5854
5827 5827 5829 5832 5836 5838 5843 5848 5851 5854 5856 5857 5859 5858 5864 5866 5868 5872 5874 5873 5874 5877 5878 5879 5879 5878 5876 5875 5873 5872 5872 5870 5870 5869 5868 5867 5866 5863 5861 5858 5855 5854 5851 5848
5820 5820 5822 5827 5829 5831 5834 5841 5845 5847 5849 5848 5849 5852 5858 5859 5861 5864 5867 5870 5871 5873 5875 5876 5874 5873 5871 5870 5868 5868 5867 5866 5866 5865 5864 5864 5863 5859 5856 5854 5851 5849 5846 5843
5812 5813 5816 5820 5822 5825 5831 5837 5840 5840 5838 5841 5845 5849 5853 5854 5855 5858 5861 5864 5866 5867 5869 5869 5869 5868 5867 5866 5865 5861 5861 5863 5862 5862 5861 5860 5858 5855 5852 5848 5846 5844 5841 5837
5803 5804 5807 5812 5816 5821 5826 5824 5828 5825 5831 5835 5839 5844 5847 5849 5851 5852 5854 5857 5860 5862 5863 5863 5863 5863 5861 5860 5857 5853 5854 5857 5858 5858 5856 5855 5853 5850 5847 5844 5841 5839 5836 5833
5789 5792 5798 5802 5808 5816 5815 5815 5818 5818 5823 5827 5831 5837 5842 5843 5845 5847 5849 5851 5853 5855 5854 5854 5855 5854 5853 5852 5844 5842 5839 5850 5853 5852 5850 5848 5846 5844 5841 5838 5836 5833 5830 5826
5778 5783 5788 5793 5799 5803 5807 5809 5808 5809 5813 5818 5823 5830 5836 5837 5837 5843 5842 5844 5845 5847 5848 5849 5849 5848 5848 5847 5847 5840 5835 5841 5845 5847 5844 5843 5841 5838 5835 5832 5830 5826 5823 5819
5770 5772 5777 5783 5788 5793 5799 5802 5802 5802 5808 5810 5815 5821 5827 5831 5831 5834 5835 5836 5839 5840 5843 5843 5843 5841 5843 5841 5838 5831 5832 5836 5838 5839 5837 5836 5834 5831 5828 5826 5824 5820 5816 5812
5761 5766 5770 5774 5780 5784 5786 5792 5794 5796 5800 5804 5808 5811 5815 5819 5822 5825 5827 5831 5832 5833 5834 5836 5835 5834 5834 5833 5830 5828 5825 5827 5830 5832 5831 5830 5827 5823 5822 5819 5818 5813 5808 5804
5755 5757 5762 5767 5770 5773 5777 5785 5787 5790 5794 5796 5800 5802 5806 5808 5810 5813 5819 5821 5823 5825 5826 5826 5825 5826 5824 5824 5822 5820 5820 5818 5822 5823 5824 5823 5820 5817 5815 5812 5809 5804 5799 5795
5746 5748 5751 5757 5761 5763 5769 5776 5777 5777 5784 5788 5793 5795 5797 5799 5801 5804 5808 5812 5815 5816 5817 5817 5819 5817 5814 5816 5814 5813 5814 5813 5815 5816 5816 5814 5812 5809 5806 5803 5800 5795 5791 5787
5739 5740 5744 5748 5752 5756 5761 5765 5768 5770 5775 5779 5783 5786 5789 5792 5795 5796 5798 5801 5804 5805 5800 5803 5805 5806 5807 5807 5807 5805 5806 5807 5809 5809 5808 5806 5804 5801 5798 5795 5792 5786 5782 5779
5733 5734 5734 5738 5744 5749 5755 5758 5760 5760 5757 5764 5771 5776 5779 5782 5787 5789 5790 5794 5793 5793 5786 5792 5795 5798 5798 5799 5797 5794 5795 5800 5803 5802 5800 5797 5796 5794 5790 5787 5783 5778 5774 5770